Regional Weather Roundup
Issued by NWS

Home | Current Version | Previous Version | Text Only | Print | Product List | Glossary Off
Versions: 1 2 3 4 5 6 7 8 9 10 11 12 13 14 15 16 17 18 19 20 21 22 23 24 25 26 27 28 29 30 31 32 33 34 35 36 37 38 39 40 41 42 43 44 45 46 47 48 49 50

000
ASUS43 KFSD 261410
RWRSD

WEATHER ROUNDUP FOR SOUTH DAKOTA
NATIONAL WEATHER SERVICE SIOUX FALLS SD
900 AM CDT THU MAY 26 2016

NOTE: "FAIR" INDICATES FEW OR NO CLOUDS BELOW 12,000 FEET WITH NO
SIGNIFICANT WEATHER AND/OR OBSTRUCTIONS TO VISIBILITY.


SDZ001>005-009-010-012>017-261500-
NORTHWEST AND NORTH CENTRAL SOUTH DAKOTA

CITY           SKY/WX    TMP DP  RH WIND       PRES   REMARKS
BUFFALO          N/A     56  44  64 SW12      29.82F
FAITH            N/A     58  45  62 W10       29.88R
MOBRIDGE       SUNNY     58  49  72 CALM      29.84R
$$

SDZ012>016-024>037-041>051-057-063-072>074-261500-
SOUTHWEST AND SOUTH CENTRAL SOUTH DAKOTA

CITY           SKY/WX    TMP DP  RH WIND       PRES   REMARKS
RAPID CTY ARPT SUNNY     58  46  64 NW5       29.91S
PIERRE         SUNNY     59  52  77 CALM      29.87R
CUSTER         SUNNY     52  37  56 W9        29.96F
ELLSWORTH AFB  MOSUNNY   58  48  69 W7        29.90S
PHILIP         SUNNY     57  50  77 NW10      29.89S
PINE RIDGE     SUNNY     55  44  66 W5        29.92R
WINNER         FAIR      65  54  67 CALM      29.87F
$$

SDZ004>011-016>023-039-040-261500-
NORTHEAST SOUTH DAKOTA

CITY           SKY/WX    TMP DP  RH WIND       PRES   REMARKS
ABERDEEN       SUNNY     60  50  69 SW8       29.85S
WATERTOWN      SUNNY     63  49  60 NW10      29.85R
BROOKINGS      SUNNY     62  49  62 NW9       29.87R
SISSETON         N/A     65  48  54 NW13      29.80R
$$

SDZ017-020-022-023-036>040-048>070-261500-
SOUTHEAST SOUTH DAKOTA

CITY           SKY/WX    TMP DP  RH WIND       PRES   REMARKS
SIOUX FALLS    MOSUNNY   67  51  56 N3        29.87R
HURON          MOSUNNY   61  52  72 SW6       29.88S
CHAMBERLAIN    SUNNY     65  56  73 E3        29.87F
MITCHELL       MOSUNNY   65  53  65 N7        29.88S
YANKTON        MOSUNNY   63  54  72 CALM      29.87S
$$

ABBREVIATIONS USED IN REMARKS
   TC - TEMPERATURE IN CELSIUS
  WCI - WIND CHILL INDEX
   HX - HEAT INDEX
  VSB - VISIBILITY





USA.gov is the U.S. government's official web portal to all federal, state and local government web resources and services.